Temp
-5 -4 -4 -4 -4 -4 -3 -3 -3 -3 -2 -1 -1 0 1 1 2 2 2 3 3 4 5 6 7 7 8
-4 -4 -3 -3 -3 -3 -3 -3 -3 -3 -2 -1 0 1 1 1 1 1 1 2 2 3 4 5 6 7 7
-3 -3 -3 -2 -2 -2 -2 -3 -2 -2 -2 -1 -0 0 1 0 0 1 1 1 2 2 3 4 5 6 7
-3 -3 -2 -2 -2 -2 -2 -2 -2 -2 -2 -1 -0 0 0 0 -0 -0 -0 0 1 1 3 3 4 4 5
-2 -2 -2 -2 -2 -2 -2 -2 -2 -2 -1 -1 -1 -1 -1 -1 -1 -1 -1 -1 -0 1 3 3 4 4 5
-2 -3 -2 -3 -2 -2 -2 -2 -2 -1 -1 -2 -1 -1 -1 -1 -1 -1 -1 -1 0 1 2 4 4 5 5
-3 -4 -3 -3 -3 -3 -2 -2 -1 -1 -2 -2 -1 -1 -0 -1 -1 -1 -1 -1 0 1 2 3 4 5 6
-4 -4 -4 -4 -3 -3 -2 -2 -2 -2 -2 -2 -1 -1 -1 -1 -1 -2 -1 0 1 1 2 3 4 5 5
-4 -3 -3 -3 -2 -2 -3 -3 -2 -2 -2 -2 -1 -1 -1 -1 -1 -1 -1 -0 1 2 3 3 4 5 6
-5 -6 -5 -4 -3 -4 -4 -4 -3 -2 -1 -2 -2 -1 -1 -0 -0 -2 -1 -1 1 3 3 3 4 6 8
-7 -6 -5 -4 -4 -4 -4 -4 -3 -3 -2 -2 -2 -2 -2 -2 -1 -1 -1 -0 0 2 3 3 4 7 9
-6 -6 -6 -5 -5 -4 -4 -3 -3 -3 -3 -3 -2 -2 -2 -2 -2 -1 -1 -1 1 3 3 4 7 9 9
-6 -7 -6 -6 -6 -5 -4 -3 -3 -3 -2 -2 -2 -3 -3 -2 -2 -1 -1 1 4 5 6 8 9 10 10
-7 -7 -7 -6 -6 -5 -4 -3 -3 -2 -1 -2 -3 -4 -4 -3 -2 -1 -1 0 7 8 8 9 9 10 10
-7 -7 -7 -7 -6 -5 -4 -3 -2 -2 -2 -3 -4 -3 -3 -2 -2 -1 0 5 8 8 9 9 10 9 10
-7 -7 -7 -7 -6 -4 -4 -3 -2 -2 -3 -4 -4 -3 -3 -2 -2 -1 2 6 7 8 9 8 8 8 7
-7 -7 -8 -8 -6 -4 -4 -3 -2 -3 -4 -4 -4 -3 -3 -2 -2 -1 1 4 4 4 7 7 6 6 6
Height
752 745 738 731 726 722 716 709 702 696 690 685 679 672 666 662 658 655 651 648 645 642 642 643 645 647 649
744 738 734 727 720 712 706 700 693 686 680 675 667 660 654 650 646 642 638 634 632 630 629 629 632 635 637
735 733 725 720 711 704 697 690 683 676 669 663 657 649 643 638 633 628 623 619 617 615 615 615 617 621 625
734 724 719 711 705 697 686 682 672 665 657 652 646 638 632 626 619 612 607 603 600 598 598 600 603 608 613
728 719 710 704 699 691 682 670 659 657 645 639 635 625 616 609 602 596 590 586 583 582 582 584 588 592 599
721 714 705 700 692 686 677 665 645 647 639 625 625 612 604 596 587 579 573 570 567 566 566 569 573 578 583
718 712 700 694 687 678 670 659 647 636 634 615 611 599 591 580 571 564 557 551 550 551 552 555 559 565 570
714 704 696 686 680 671 662 651 639 631 628 609 600 584 575 567 560 550 541 536 533 534 538 543 548 552 557
705 696 688 680 673 665 657 648 630 620 617 606 589 573 563 552 546 540 533 524 520 521 526 531 535 539 544
696 686 679 672 667 663 655 644 632 610 607 600 580 571 551 543 536 529 522 514 513 514 517 521 522 527 531
690 682 674 667 661 656 650 642 628 614 601 594 574 562 559 537 523 519 514 506 507 504 506 507 512 516 517
687 678 670 662 655 648 640 632 623 612 595 587 569 556 550 536 524 507 501 492 493 497 498 499 499 494 505
684 677 669 661 652 642 633 624 613 603 590 579 566 547 545 535 522 508 503 488 484 490 489 492 495 493 502
683 675 666 657 648 640 630 619 607 591 583 575 561 545 534 524 517 506 499 496 488 484 486 495 492 499 493
681 673 665 656 645 638 628 617 606 590 576 567 556 544 531 519 515 508 484 483 486 488 489 492 499 501 503
680 672 665 655 644 635 627 617 605 591 580 569 556 542 532 521 512 500 489 484 491 495 499 501 509 513 518
678 671 663 653 644 635 626 617 604 595 584 573 565 555 544 537 524 513 503 494 496 501 505 510 519 528 533
Wind_Speed
34 35 36 38 35 36 39 39 38 38 37 37 37 38 39 39 39 38 39 42 43 43 43 44 42 42 41
38 37 34 36 37 39 37 36 35 38 39 38 41 40 37 38 38 39 41 42 42 43 44 44 46 44 43
38 35 36 36 36 35 34 33 35 37 39 39 38 38 37 39 41 43 44 43 43 44 46 46 42 43 42
31 34 34 33 30 29 34 33 37 38 40 36 39 37 41 42 41 44 45 43 41 42 45 48 48 46 45
27 31 29 29 27 33 33 40 40 38 35 34 35 40 41 39 42 44 45 44 39 37 40 44 49 50 49
28 26 34 33 34 31 34 31 16 27 27 43 35 39 39 40 43 46 45 43 40 38 34 38 43 43 46
36 33 37 37 39 38 34 27 32 40 35 36 37 38 40 41 39 46 44 43 42 38 36 35 38 42 42
33 38 38 39 38 35 34 38 39 38 31 16 40 39 39 39 39 38 29 26 32 35 34 34 35 40 43
34 38 38 39 36 33 27 26 18 30 34 31 36 40 39 37 31 25 39 34 24 29 30 29 33 41 42
37 37 32 32 29 28 27 23 22 18 32 32 37 26 10 30 24 33 30 26 18 21 28 30 31 30 34
28 30 29 28 25 25 26 29 30 29 43 40 35 35 20 14 27 26 25 23 21 21 27 29 30 31 27
27 28 28 28 30 32 35 36 38 40 48 44 34 35 22 14 14 24 34 31 17 18 23 28 25 23 24
26 28 29 30 33 33 33 34 36 37 38 38 35 39 28 16 11 22 20 14 11 17 18 21 17 12 22
28 30 30 28 31 30 31 33 33 37 34 32 33 35 27 23 21 20 19 5 19 20 22 21 12 16 33
27 29 28 28 30 29 30 30 27 27 30 31 34 33 29 24 13 19 20 7 19 26 22 18 20 19 35
27 28 28 28 29 30 28 27 26 24 28 30 32 29 27 11 8 26 14 13 23 26 27 18 16 25 38
26 28 28 27 27 26 28 28 27 24 26 28 24 17 10 8 12 32 13 13 26 22 24 24 19 36 41
Wind_Direction
292 299 300 302 303 302 300 298 297 299 298 299 297 295 291 287 283 279 278 277 272 266 260 255 249 248 248
297 299 296 301 298 298 296 295 295 296 297 297 298 297 292 289 286 281 280 275 269 263 259 255 246 243 246
288 294 295 298 295 294 295 298 297 294 294 295 298 296 292 291 288 286 283 278 270 262 255 254 244 242 240
286 292 295 297 291 294 302 300 299 299 294 290 296 293 296 291 287 285 283 277 270 260 250 245 245 240 239
297 295 297 305 302 303 299 301 297 295 293 295 300 294 291 289 284 280 277 273 270 259 247 241 236 237 235
295 304 303 301 301 303 300 298 299 304 306 300 299 292 291 287 283 277 273 269 266 262 255 241 233 231 233
300 298 299 300 298 295 291 294 297 300 303 294 301 292 292 289 286 292 284 274 262 252 245 242 231 225 228
296 296 294 294 291 292 301 302 296 296 299 290 301 293 296 293 293 301 300 286 256 242 236 233 227 225 227
305 304 302 301 298 300 300 303 298 301 306 296 301 298 298 293 287 290 302 299 267 232 227 227 228 225 229
314 310 309 306 304 300 299 296 297 301 310 306 302 304 305 298 298 300 298 296 276 236 225 224 227 229 208
317 312 312 313 306 303 299 292 293 296 302 304 298 299 292 307 301 301 300 294 281 241 229 227 223 210 196
317 315 314 314 312 306 304 300 295 289 298 296 290 295 300 298 295 306 310 298 249 211 211 215 206 215 202
321 318 313 310 310 310 309 305 304 305 303 304 305 306 304 285 287 301 319 334 211 182 179 186 189 179 235
319 318 314 314 313 315 312 315 316 314 321 321 317 313 306 288 291 295 288 263 179 161 157 153 159 219 149
323 322 318 318 315 319 314 318 317 317 326 329 330 330 322 298 302 304 295 206 147 136 134 114 134 108 131
322 321 318 316 316 323 322 323 319 322 327 331 335 342 343 331 308 340 341 80 112 124 128 114 107 109 125
320 322 319 316 321 321 326 323 323 331 328 331 339 342 340 338 322 5 357 87 90 77 106 104 109 124 126